Skip Page Navigation
NASA JPL Caltech
NASA Logo - Jet Propulsion Laboratory + View the NASA Portal
+ Center for Near-Earth Object Studies
JPL Home Earth Solar System Stars & Galaxies Technology
JPL Solar System Dynamics
BODIES ORBITS EPHEMERIDES TOOLS PHYSICAL DATA DISCOVERY FAQ SITE MAP
IMPORTANT: The SSD Announcement email list is now available. Major changes are coming in the near future, including possible hostname and/or URL changes. To be notified of such changes, subscribe to this email list.

Please visit this page for more details.


JPL Small-Body Database Browser
Search: [ help ]  
48632 (1995 SV29)
Classification: Main-belt Asteroid          SPK-ID: 2048632
Ephemeris | Orbit Diagram | Orbital Elements | Mission Design | Physical Parameters | Discovery Circumstances ]

[ show orbit diagram ]
Orbital Elements at Epoch 2458600.5 (2019-Apr-27.0) TDB
Reference: JPL 23 (heliocentric ecliptic J2000)
 Element Value Uncertainty (1-sigma)   Units 
e .1565693336086988 3.6029e-08  
a 2.248368217598779 8.5797e-09 au
q 1.89634270406236 8.3043e-08 au
i 7.063047867891152 3.7968e-06 deg
node 213.2982560614844 3.3156e-05 deg
peri 156.522094169319 3.5947e-05 deg
M 355.2912614990245 1.4903e-05 deg
tp 2458616.606517734195
(2019-May-13.10651773)
5.1029e-05 TDB
period 1231.401230522521
3.37
7.0485e-06
1.93e-08
d
yr
n .2923498783960456 1.6734e-09 deg/d
Q 2.600393731135198 9.9231e-09 au
  Orbit Determination Parameters
   # obs. used (total)      931  
   data-arc span      8798 days (24.09 yr)  
   first obs. used      1995-09-29  
   last obs. used      2019-10-31  
   planetary ephem.      DE431  
   SB-pert. ephem.      SB431-N16  
   condition code      0  
   norm. resid. RMS      .58231  
   source      ORB  
   producer      Otto Matic  
   solution date      2019-Nov-07 06:37:58  

Additional Information
 Earth MOID = .898012 au 
 Jupiter MOID = 2.87042 au 
 T_jup = 3.603 
[ show covariance matrix ]

Ephemeris | Orbit Diagram | Orbital Elements | Mission Design | Physical Parameters | Discovery Circumstances ]

Physical Parameter Table
Parameter Symbol Value Units Sigma Reference Notes
absolute magnitude H 15.3   n/a MPO449311  
diameter diameter 2.153 km 0.413 urn:nasa:pds:neowise_diameters_albedos::2.0[mainbelt] (http://adsabs.harvard.edu/abs/2011ApJ...741...68M)  
geometric albedo albedo 0.289   0.097 urn:nasa:pds:neowise_diameters_albedos::2.0[mainbelt] (http://adsabs.harvard.edu/abs/2011ApJ...741...68M)  

48632 (1995 SV29)          Discovered 1995-Sep-29 by Laurie, S. P. at Church Stretton
Reference: 20021120/Numbers.arcLast Updated: 2004-04-19

Alternate Designations
 1995 SV29 = 2000 AX195 = 2001 JM9 
Ephemeris | Orbit Diagram | Orbital Elements | Mission Design | Physical Parameters | Discovery Circumstances ]
ABOUT SSD CREDITS/AWARDS PRIVACY/COPYRIGHT GLOSSARY LINKS
FirstGov
(server date/time)  
NASA Home Page
Site Manager:   Ryan S. Park
Webmaster  Alan B. Chamberlin